| time (UTC) | temp F | wind direction | speed MPH | gust MPH | rain 1hr in | rain 24hr in | rain mn in | humidity % | barometer mb |
| 20260508004551 | 75 | 193 | 6.0 | 12.0 | 0.00 | 0.00 | 0.00 | 34 | 1010.2 |
| 20260508003051 | 76 | 201 | 7.0 | 13.0 | 0.00 | 0.00 | 0.00 | 33 | 1010.2 |
| 20260508001556 | 76 | 165 | 7.0 | 13.0 | 0.00 | 0.00 | 0.00 | 32 | 1010.2 |
| 20260508000054 | 76 | 202 | 7.0 | 15.0 | 0.00 | 0.00 | 0.00 | 31 | 1010.2 |
| 20260507234549 | 77 | 158 | 7.0 | 14.0 | 0.00 | 0.00 | 0.00 | 30 | 1010.3 |
| 20260507233048 | 77 | 179 | 7.0 | 15.0 | 0.00 | 0.00 | 0.00 | 31 | 1010.2 |
| 20260507231547 | 77 | 178 | 7.0 | 17.0 | 0.00 | 0.00 | 0.00 | 31 | 1010.3 |
| 20260507230043 | 0 | 0.0 | 0.0 | 0.00 | 0.00 | 0.00 | 1010.3 | ||
| 20260507224539 | 0 | 0.0 | 0.0 | 0.00 | 0.00 | 0.00 | 1010.5 | ||
| 20260507223039 | 77 | 141 | 6.0 | 13.0 | 0.00 | 0.00 | 0.00 | 31 | 1010.8 |
| 20260507221536 | 76 | 194 | 5.0 | 14.0 | 0.00 | 0.00 | 0.00 | 31 | 1010.9 |
| 20260507220034 | 76 | 131 | 5.0 | 13.0 | 0.00 | 0.00 | 0.00 | 31 | 1011.1 |
| 20260507214538 | 77 | 141 | 4.0 | 11.0 | 0.00 | 0.00 | 0.00 | 32 | 1011.2 |
| 20260507213039 | 77 | 203 | 4.0 | 10.0 | 0.00 | 0.00 | 0.00 | 32 | 1011.5 |
| 20260507211542 | 75 | 195 | 4.0 | 9.0 | 0.00 | 0.00 | 0.00 | 33 | 1011.7 |
| 20260507210024 | 0 | 0.0 | 0.0 | 0.00 | 0.00 | 0.00 | 1012.0 | ||
| 20260507204520 | 0 | 0.0 | 0.0 | 0.00 | 0.00 | 0.00 | 1012.2 | ||
| 20260507203017 | 72 | 162 | 3.0 | 11.0 | 0.00 | 0.00 | 0.00 | 37 | 1012.4 |
| 20260507201525 | 72 | 156 | 5.0 | 9.0 | 0.00 | 0.00 | 0.00 | 37 | 1012.8 |
| 20260507200017 | 72 | 360 | 3.0 | 8.0 | 0.00 | 0.00 | 0.00 | 39 | 1013.0 |
| 20260507194513 | 71 | 236 | 4.0 | 8.0 | 0.00 | 0.00 | 0.00 | 39 | 1013.3 |
| 20260507193015 | 71 | 227 | 2.0 | 8.0 | 0.00 | 0.00 | 0.00 | 39 | 1013.7 |
| 20260507191520 | 71 | 360 | 3.0 | 10.0 | 0.00 | 0.00 | 0.00 | 39 | 1014.0 |
| 20260507190009 | 70 | 149 | 2.0 | 8.0 | 0.00 | 0.00 | 0.00 | 41 | 1014.1 |
| 20260507184506 | 0 | 0.0 | 0.0 | 0.00 | 0.00 | 0.00 | 1014.5 | ||
| 20260507183002 | 69 | 183 | 3.0 | 6.0 | 0.00 | 0.00 | 0.00 | 43 | 1014.6 |
| 20260507181502 | 68 | 264 | 3.0 | 9.0 | 0.00 | 0.00 | 0.00 | 44 | 1015.1 |
| 20260507180101 | 69 | 177 | 2.0 | 9.0 | 0.00 | 0.00 | 0.00 | 43 | 1015.4 |
| 20260507180001 | 69 | 184 | 2.0 | 9.0 | 0.00 | 0.00 | 0.00 | 43 | 1015.4 |
| 20260507174601 | 68 | 148 | 3.0 | 7.0 | 0.00 | 0.00 | 0.00 | 44 | 1015.8 |
| 20260507173103 | 67 | 129 | 2.0 | 7.0 | 0.00 | 0.00 | 0.00 | 45 | 1016.1 |
| 20260507171556 | 67 | 220 | 2.0 | 7.0 | 0.00 | 0.00 | 0.00 | 47 | 1016.3 |
| 20260507170054 | 65 | 217 | 3.0 | 7.0 | 0.00 | 0.00 | 0.00 | 47 | 1016.6 |
| 20260507164551 | 65 | 200 | 2.0 | 6.0 | 0.00 | 0.00 | 0.00 | 48 | 1016.8 |
| 20260507163046 | 61 | 360 | 3.0 | 8.0 | 0.00 | 0.00 | 0.00 | 53 | 1017.0 |
| 20260507161551 | 61 | 180 | 3.0 | 8.0 | 0.00 | 0.00 | 0.00 | 52 | 1017.2 |
| 20260507160042 | 59 | 116 | 3.0 | 8.0 | 0.00 | 0.00 | 0.00 | 55 | 1017.3 |
| 20260507154542 | 59 | 91 | 4.0 | 9.0 | 0.00 | 0.00 | 0.00 | 55 | 1017.5 |
| 20260507153038 | 58 | 63 | 3.0 | 8.0 | 0.00 | 0.00 | 0.00 | 56 | 1017.6 |
| 20260507151538 | 56 | 129 | 3.0 | 8.0 | 0.00 | 0.00 | 0.00 | 59 | 1017.7 |
| 20260507150036 | 56 | 94 | 5.0 | 10.0 | 0.00 | 0.00 | 0.00 | 59 | 1017.8 |
| 20260507144536 | 55 | 107 | 3.0 | 10.0 | 0.00 | 0.00 | 0.00 | 60 | 1017.9 |
| 20260507143033 | 54 | 360 | 4.0 | 10.0 | 0.00 | 0.00 | 0.00 | 62 | 1017.9 |
| 20260507141531 | 54 | 79 | 4.0 | 8.0 | 0.00 | 0.00 | 0.00 | 64 | 1017.9 |
| 20260507140034 | 53 | 360 | 5.0 | 10.0 | 0.00 | 0.00 | 0.00 | 66 | 1017.9 |
| 20260507134526 | 52 | 360 | 6.0 | 11.0 | 0.00 | 0.00 | 0.00 | 67 | 1017.7 |
| 20260507133024 | 51 | 360 | 7.0 | 13.0 | 0.00 | 0.00 | 0.00 | 68 | 1017.5 |
| 20260507131521 | 51 | 360 | 6.0 | 11.0 | 0.00 | 0.00 | 0.00 | 69 | 1017.3 |
| 20260507130020 | 50 | 360 | 6.0 | 11.0 | 0.00 | 0.00 | 0.00 | 69 | 1017.1 |
| 20260507124515 | 49 | 79 | 5.0 | 9.0 | 0.00 | 0.00 | 0.00 | 69 | 1017.2 |
| 20260507123021 | 49 | 83 | 6.0 | 10.0 | 0.00 | 0.00 | 0.00 | 69 | 1017.1 |
| 20260507121509 | 49 | 73 | 7.0 | 12.0 | 0.00 | 0.00 | 0.00 | 69 | 1016.8 |
| 20260507120006 | 49 | 360 | 7.0 | 15.0 | 0.00 | 0.00 | 0.00 | 69 | 1016.8 |
| 20260507114503 | 49 | 85 | 7.0 | 12.0 | 0.00 | 0.00 | 0.00 | 70 | 1016.6 |
| 20260507113058 | 49 | 98 | 9.0 | 17.0 | 0.00 | 0.00 | 0.00 | 70 | 1016.4 |
| 20260507111552 | 50 | 76 | 6.0 | 14.0 | 0.00 | 0.00 | 0.00 | 71 | 1016.3 |
| 20260507110057 | 50 | 95 | 7.0 | 15.0 | 0.00 | 0.00 | 0.00 | 71 | 1016.2 |
| 20260507104550 | 50 | 100 | 7.0 | 12.0 | 0.00 | 0.00 | 0.00 | 70 | 1016.2 |
| 20260507103101 | 51 | 82 | 7.0 | 14.0 | 0.00 | 0.00 | 0.00 | 69 | 1015.9 |
| 20260507101539 | 51 | 360 | 7.0 | 14.0 | 0.00 | 0.00 | 0.00 | 68 | 1015.9 |
| 20260507100031 | 52 | 79 | 9.0 | 15.0 | 0.00 | 0.00 | 0.00 | 67 | 1015.8 |
| 20260507094531 | 52 | 86 | 7.0 | 14.0 | 0.00 | 0.00 | 0.00 | 67 | 1015.8 |
| 20260507093022 | 53 | 360 | 11.0 | 18.0 | 0.00 | 0.00 | 0.00 | 66 | 1015.6 |
| 20260507091519 | 53 | 74 | 7.0 | 13.0 | 0.00 | 0.00 | 0.00 | 65 | 1015.5 |
| 20260507090012 | 53 | 96 | 8.0 | 13.0 | 0.00 | 0.00 | 0.00 | 65 | 1015.3 |
| 20260507084529 | 53 | 65 | 7.0 | 14.0 | 0.00 | 0.00 | 0.00 | 64 | 1015.3 |
| 20260507083006 | 53 | 360 | 9.0 | 15.0 | 0.00 | 0.00 | 0.00 | 64 | 1015.4 |
| 20260507081501 | 54 | 82 | 8.0 | 17.0 | 0.00 | 0.00 | 0.00 | 63 | 1015.2 |
| 20260507080056 | 54 | 96 | 9.0 | 15.0 | 0.00 | 0.00 | 0.00 | 62 | 1015.1 |
| 20260507074552 | 55 | 86 | 11.0 | 17.0 | 0.00 | 0.00 | 0.00 | 61 | 1015.0 |
| 20260507073045 | 56 | 360 | 10.0 | 17.0 | 0.00 | 0.00 | 0.00 | 61 | 1015.1 |
| 20260507071541 | 56 | 68 | 9.0 | 17.0 | 0.00 | 0.00 | 0.00 | 61 | 1015.0 |
| 20260507070053 | 56 | 84 | 9.0 | 14.0 | 0.00 | 0.00 | 0.00 | 61 | 1014.3 |
| 20260507064527 | 57 | 63 | 9.0 | 16.0 | 0.00 | 0.00 | 0.00 | 58 | 1013.6 |
| 20260507063019 | 58 | 141 | 8.0 | 16.0 | 0.00 | 0.00 | 0.00 | 57 | 1013.0 |
| 20260507061513 | 59 | 108 | 6.0 | 10.0 | 0.00 | 0.00 | 0.00 | 57 | 1012.9 |
| 20260507060012 | 59 | 360 | 7.0 | 15.0 | 0.00 | 0.00 | 0.00 | 56 | 1012.6 |
| 20260507054503 | 60 | 360 | 9.0 | 16.0 | 0.00 | 0.00 | 0.00 | 55 | 1012.3 |
| 20260507053001 | 61 | 134 | 8.0 | 16.0 | 0.00 | 0.00 | 0.00 | 54 | 1012.1 |
| 20260507051602 | 62 | 113 | 7.0 | 12.0 | 0.00 | 0.00 | 0.00 | 53 | 1012.0 |
| 20260507050100 | 62 | 111 | 7.0 | 14.0 | 0.00 | 0.00 | 0.00 | 52 | 1011.8 |
| 20260507050002 | 62 | 360 | 7.0 | 14.0 | 0.00 | 0.00 | 0.00 | 51 | 1011.9 |
| 20260507044600 | 64 | 135 | 6.0 | 12.0 | 0.00 | 0.00 | 0.00 | 47 | 1011.7 |
| 20260507043056 | 65 | 155 | 2.0 | 11.0 | 0.00 | 0.00 | 0.00 | 44 | 1011.5 |
| 20260507041603 | 67 | 105 | 4.0 | 8.0 | 0.00 | 0.00 | 0.00 | 40 | 1011.3 |
| 20260507040054 | 68 | 316 | 3.0 | 9.0 | 0.00 | 0.00 | 0.00 | 26 | 1011.1 |
| 20260507034552 | 66 | 122 | 6.0 | 12.0 | 0.00 | 0.00 | 0.00 | 32 | 1010.7 |
| 20260507033053 | 66 | 281 | 2.0 | 5.0 | 0.00 | 0.00 | 0.00 | 26 | 1010.3 |
| 20260507031551 | 67 | 285 | 1.0 | 3.0 | 0.00 | 0.00 | 0.00 | 27 | 1010.0 |
| 20260507030051 | 68 | 285 | 1.0 | 3.0 | 0.00 | 0.00 | 0.00 | 27 | 1009.7 |
| 20260507024553 | 70 | 285 | 1.0 | 3.0 | 0.00 | 0.00 | 0.00 | 23 | 1009.7 |
| 20260507023049 | 71 | 285 | 2.0 | 5.0 | 0.00 | 0.00 | 0.00 | 18 | 1009.4 |
| 20260507021601 | 72 | 283 | 4.0 | 8.0 | 0.00 | 0.00 | 0.00 | 18 | 1009.1 |
| 20260507020106 | 73 | 283 | 5.0 | 9.0 | 0.00 | 0.00 | 0.00 | 18 | 1008.9 |
| 20260507014616 | 74 | 291 | 7.0 | 12.0 | 0.00 | 0.00 | 0.00 | 17 | 1008.8 |
| 20260507013050 | 76 | 293 | 7.0 | 14.0 | 0.00 | 0.00 | 0.00 | 16 | 1008.6 |
| 20260507011556 | 77 | 285 | 11.0 | 17.0 | 0.00 | 0.00 | 0.00 | 15 | 1008.3 |
| 20260507010047 | 78 | 283 | 7.0 | 14.0 | 0.00 | 0.00 | 0.00 | 14 | 1008.2 |